Date String (YYYY-MM-DD hh:mm:ss) UTC,Instrument flags,absolute air pressure of the measurement (hPa),sample flow rate (lpm),inlet stack bypass flow (lpm),air temperature of the measurement (°C),ambient temperature measured by the external sensor (°C),aerosol sample conditioner tube jacket temperature (°C),OPC LED temperature (°C),internal box temperature (°C),relative humidity of the measurement (%),span deviation,mass concentration of particles derived from Lorenz-Mie calculation of OPC scattering (μg/m³),mass concentration of particles derived from Lorenz-Mie calculation of OPC scattering (μg/m³),mass concentration of particles derived from Lorenz-Mie calculation of OPC scattering (μg/m³)
DateTimeUTC,F1_M11,P_M11,Q1_M11,Q2_M11,T1_M11,T2_M11,T3_M11,T4_M11,T5_M11,U1_M11,ZSPAN_M11,X0_M11,X2_M11,X1_M11
2024-05-25 05:00:00,SystemResetWarning,0824.3,5.00,000.00,030.9,030.0,000.0,039.3,032.5,011.1,0000.0,0013.01,0003.95,0002.40
2024-05-25 05:01:00,SystemResetWarning,0824.2,4.99,000.00,030.9,030.0,000.0,039.3,032.5,011.2,0000.0,0013.31,0003.92,0002.39
2024-05-25 05:02:00,SystemResetWarning,0824.3,4.99,000.00,030.9,030.0,000.0,039.3,032.5,011.2,0000.0,0013.77,0003.92,0002.37
2024-05-25 05:03:00,SystemResetWarning,0824.2,4.99,000.00,030.9,030.0,000.0,039.3,032.5,011.0,0000.0,0014.08,0003.94,0002.37
2024-05-25 05:04:00,SystemResetWarning,0824.2,5.02,000.00,030.9,030.0,000.0,039.3,032.5,011.0,0000.0,0012.08,0003.84,0002.34
2024-05-25 05:05:00,SystemResetWarning,0824.1,5.01,000.00,030.9,030.0,000.0,039.3,032.5,011.0,0000.0,0011.83,0003.83,0002.34
2024-05-25 05:06:00,SystemResetWarning,0824.2,4.98,000.00,030.9,030.0,000.0,039.3,032.5,010.9,0000.0,0011.47,0003.82,0002.34
2024-05-25 05:07:00,SystemResetWarning,0824.2,5.00,000.00,030.9,030.0,000.0,039.3,032.5,010.9,0000.0,0010.78,0003.78,0002.34
2024-05-25 05:08:00,SystemResetWarning,0824.2,5.01,000.00,030.9,030.0,000.0,039.3,032.5,011.0,0000.0,0011.20,0003.82,0002.33
2024-05-25 05:09:00,SystemResetWarning,0824.1,5.01,000.00,030.9,030.0,000.0,039.3,032.4,011.0,0000.0,0011.93,0003.85,0002.31
2024-05-25 05:10:00,SystemResetWarning,0824.1,4.99,000.00,030.9,030.0,000.0,039.3,032.4,011.0,0000.0,0011.88,0003.85,0002.32
2024-05-25 05:11:00,SystemResetWarning,0824.0,4.99,000.00,030.9,030.0,000.0,039.3,032.5,011.0,0000.0,0011.68,0003.86,0002.31
2024-05-25 05:12:00,SystemResetWarning,0824.0,4.99,000.00,030.8,030.0,000.0,039.3,032.4,011.1,0000.0,0011.41,0003.84,0002.31
2024-05-25 05:13:00,SystemResetWarning,0823.9,5.01,000.00,030.8,030.0,000.0,039.3,032.5,011.1,0000.0,0011.03,0003.81,0002.29
2024-05-25 05:14:00,SystemResetWarning,0824.0,5.01,000.00,030.8,030.0,000.0,039.3,032.4,011.2,0000.0,0010.24,0003.78,0002.28
2024-05-25 05:15:00,SystemResetWarning,0824.0,5.00,000.00,030.8,030.0,000.0,039.3,032.4,011.2,0000.0,0010.19,0003.75,0002.27
2024-05-25 05:16:00,SystemResetWarning,0823.8,5.00,000.00,030.8,030.0,000.0,039.2,032.5,011.2,0000.0,0011.51,0003.76,0002.28
2024-05-25 05:17:00,SystemResetWarning,0823.8,4.99,000.00,030.8,030.0,000.0,039.2,032.5,011.2,0000.0,0011.66,0003.79,0002.29
2024-05-25 05:18:00,SystemResetWarning,0823.8,4.99,000.00,030.8,030.0,000.0,039.2,032.5,011.3,0000.0,0011.41,0003.84,0002.29
2024-05-25 05:19:00,SystemResetWarning,0823.8,5.00,000.00,030.8,030.0,000.0,039.2,032.5,011.3,0000.0,0010.90,0003.78,0002.28
2024-05-25 05:20:00,SystemResetWarning,0823.8,4.99,000.00,030.8,030.0,000.0,039.2,032.5,011.3,0000.0,0010.19,0003.79,0002.29
2024-05-25 05:21:00,SystemResetWarning,0823.8,5.00,000.00,030.8,030.0,000.0,039.2,032.5,011.3,0000.0,0010.18,0003.77,0002.27
2024-05-25 05:22:00,SystemResetWarning,0823.8,5.01,000.00,030.8,030.0,000.0,039.2,032.5,011.3,0000.0,0010.07,0003.75,0002.26
2024-05-25 05:23:00,SystemResetWarning,0823.8,5.01,000.00,030.8,030.0,000.0,039.2,032.4,011.3,0000.0,0009.81,0003.75,0002.25
2024-05-25 05:24:00,SystemResetWarning,0823.8,4.99,000.00,030.8,030.0,000.0,039.2,032.5,011.4,0000.0,0009.77,0003.74,0002.26
2024-05-25 05:25:00,SystemResetWarning,0823.9,5.00,000.00,030.8,030.0,000.0,039.2,032.5,011.4,0000.0,0010.05,0003.77,0002.26
2024-05-25 05:26:00,SystemResetWarning,0823.9,5.00,000.00,030.8,030.0,000.0,039.2,032.5,011.3,0000.0,0010.61,0003.83,0002.29
2024-05-25 05:27:00,SystemResetWarning,0823.9,5.00,000.00,030.8,030.0,000.0,039.2,032.5,011.3,0000.0,0009.68,0003.87,0002.31
2024-05-25 05:28:00,SystemResetWarning,0823.9,5.00,000.00,030.8,030.0,000.0,039.2,032.5,011.3,0000.0,0009.68,0003.84,0002.29
2024-05-25 05:29:00,SystemResetWarning,0823.9,5.01,000.00,030.8,030.0,000.0,039.2,032.5,011.3,0000.0,0010.43,0003.81,0002.28
2024-05-25 05:30:00,SystemResetWarning,0823.9,5.00,000.00,030.8,029.9,000.0,039.2,032.4,011.3,0000.0,0012.14,0003.82,0002.27
2024-05-25 05:31:00,SystemResetWarning,0823.9,5.00,000.00,030.8,029.9,000.0,039.2,032.4,011.4,0000.0,0013.37,0003.81,0002.27
2024-05-25 05:32:00,SystemResetWarning,0823.8,4.99,000.00,030.8,029.9,000.0,039.2,032.4,011.3,0000.0,0013.80,0003.84,0002.29
2024-05-25 05:33:00,SystemResetWarning,0823.8,5.00,000.00,030.8,029.9,000.0,039.2,032.4,011.3,0000.0,0014.58,0003.93,0002.31
2024-05-25 05:34:00,SystemResetWarning,0823.8,5.00,000.00,030.8,029.9,000.0,039.2,032.4,011.3,0000.0,0015.18,0003.97,0002.31
2024-05-25 05:35:00,SystemResetWarning,0823.8,5.00,000.00,030.8,029.9,000.0,039.2,032.4,011.2,0000.0,0015.69,0004.00,0002.32
2024-05-25 05:36:00,SystemResetWarning,0823.8,5.00,000.00,030.8,029.9,000.0,039.2,032.4,011.1,0000.0,0016.23,0004.00,0002.32
2024-05-25 05:37:00,SystemResetWarning,0823.7,5.00,000.00,030.8,029.9,000.0,039.2,032.4,011.2,0000.0,0016.14,0003.99,0002.31
2024-05-25 05:38:00,SystemResetWarning,0823.7,4.99,000.00,030.8,029.9,000.0,039.2,032.4,011.2,0000.0,0016.21,0003.98,0002.28
2024-05-25 05:39:00,SystemResetWarning,0823.7,5.00,000.00,030.8,029.9,000.0,039.2,032.4,011.2,0000.0,0015.94,0003.99,0002.27
2024-05-25 05:40:00,SystemResetWarning,0823.6,5.00,000.00,030.8,029.9,000.0,039.2,032.4,011.2,0000.0,0015.72,0003.99,0002.30
2024-05-25 05:41:00,SystemResetWarning,0823.6,5.00,000.00,030.8,029.9,000.0,039.2,032.4,011.2,0000.0,0015.33,0003.98,0002.32
2024-05-25 05:42:00,SystemResetWarning,0823.6,5.00,000.00,030.8,029.9,000.0,039.2,032.4,011.1,0000.0,0013.89,0003.98,0002.32
2024-05-25 05:43:00,SystemResetWarning,0823.6,5.01,000.00,030.8,029.9,000.0,039.2,032.4,011.2,0000.0,0014.17,0003.96,0002.28
2024-05-25 05:44:00,SystemResetWarning,0823.5,5.00,000.00,030.8,029.9,000.0,039.2,032.4,011.2,0000.0,0014.49,0003.89,0002.25
2024-05-25 05:45:00,SystemResetWarning,0823.5,5.00,000.00,030.8,029.9,000.0,039.2,032.4,011.1,0000.0,0014.28,0003.86,0002.26
2024-05-25 05:46:00,SystemResetWarning,0823.6,5.01,000.00,030.8,029.9,000.0,039.2,032.4,011.1,0000.0,0014.02,0003.88,0002.25
2024-05-25 05:47:00,SystemResetWarning,0823.6,4.98,000.00,030.8,029.9,000.0,039.2,032.4,011.0,0000.0,0013.46,0003.91,0002.24
2024-05-25 05:48:00,SystemResetWarning,0823.6,5.00,000.00,030.8,029.9,000.0,039.2,032.4,011.0,0000.0,0013.58,0003.87,0002.25
2024-05-25 05:49:00,SystemResetWarning,0823.6,5.00,000.00,030.8,029.9,000.0,039.2,032.4,011.1,0000.0,0014.12,0003.86,0002.25
2024-05-25 05:50:00,SystemResetWarning,0823.5,5.00,000.00,030.8,030.0,000.0,039.2,032.4,011.1,0000.0,0014.43,0003.81,0002.25
2024-05-25 05:51:00,SystemResetWarning,0823.6,5.01,000.00,030.8,030.0,000.0,039.2,032.4,011.1,0000.0,0014.13,0003.81,0002.22
2024-05-25 05:52:00,SystemResetWarning,0823.6,5.00,000.00,030.8,030.0,000.0,039.2,032.4,011.0,0000.0,0013.98,0003.78,0002.22
2024-05-25 05:53:00,SystemResetWarning,0823.6,4.99,000.00,030.8,030.0,000.0,039.2,032.4,011.0,0000.0,0015.07,0003.80,0002.23
2024-05-25 05:54:00,SystemResetWarning,0823.5,4.99,000.00,030.8,030.0,000.0,039.2,032.4,011.0,0000.0,0014.40,0003.75,0002.25
2024-05-25 05:55:00,SystemResetWarning,0823.5,5.01,000.00,030.8,030.0,000.0,039.2,032.4,011.0,0000.0,0014.18,0003.76,0002.27
2024-05-25 05:56:00,SystemResetWarning,0823.5,5.00,000.00,030.8,030.0,000.0,039.2,032.4,011.0,0000.0,0013.87,0003.78,0002.28
2024-05-25 05:57:00,SystemResetWarning,0823.5,4.99,000.00,030.8,030.0,000.0,039.2,032.4,011.0,0000.0,0013.80,0003.77,0002.29
2024-05-25 05:58:00,SystemResetWarning,0823.5,4.99,000.00,030.8,030.0,000.0,039.2,032.5,011.0,0000.0,0013.68,0003.77,0002.30
2024-05-25 05:59:00,SystemResetWarning,0823.5,5.01,000.00,030.8,030.0,000.0,039.2,032.4,011.0,0000.0,0013.89,0003.82,0002.31
